Lapse_Rate
6.8 6.6 6.7 6.5 6.3 6.1 6.1 6.2 6.1 5.8 5.8 5.5 5.6 5.6 5.6 5.4 5.5 5.5 5.5 5.3 5.4 5.2 5.0 5.0 5.2 5.2 5.3 5.3 5.4 5.6 5.6 5.5 5.4 5.4 4.8 4.9 5.0 5.0 5.2 5.0 4.6 4.8 4.8
6.9 6.8 6.6 6.5 6.4 6.3 6.1 6.4 6.0 5.9 5.7 5.6 5.5 5.4 5.5 5.6 5.4 5.3 5.2 5.0 5.0 5.1 5.2 5.1 5.0 4.9 5.0 5.2 5.2 5.4 5.4 5.3 5.3 5.2 5.0 5.0 5.1 4.9 4.9 5.1 4.9 4.8 4.7
7.1 6.7 6.6 6.5 6.3 6.3 6.3 6.2 5.9 6.0 5.6 5.5 5.4 5.4 5.4 5.5 5.3 5.3 5.3 5.1 4.9 4.7 4.5 4.5 4.7 4.9 5.0 5.1 5.2 5.1 5.1 5.3 5.2 5.0 5.0 5.0 4.9 4.7 4.8 4.7 4.8 4.7 4.7
7.1 7.0 6.4 6.4 6.2 6.1 6.4 6.1 5.7 5.9 5.7 5.5 5.4 5.3 5.4 5.5 5.3 5.2 5.1 4.9 4.8 4.8 4.8 4.7 4.4 4.4 4.4 4.6 4.8 4.7 4.8 4.7 4.7 4.7 4.4 4.6 4.4 4.6 4.7 4.5 4.6 4.7 4.6
6.8 6.7 6.5 6.6 6.3 6.3 6.3 6.0 5.9 5.7 5.5 5.5 5.3 5.2 5.2 5.2 5.1 5.1 5.1 5.1 5.2 5.0 5.0 5.0 4.9 4.8 4.7 4.6 4.6 4.6 4.7 4.7 4.9 4.8 4.8 4.9 4.7 4.5 4.3 4.3 4.3 4.3 4.4
6.7 6.9 6.7 6.7 6.7 6.3 6.2 5.9 5.8 5.7 5.6 5.5 5.2 5.1 5.0 5.0 5.1 5.1 5.1 5.1 5.2 5.3 5.2 5.2 5.0 5.0 5.0 5.0 4.9 4.8 4.9 4.9 4.9 5.0 4.9 4.8 4.7 4.6 4.5 4.3 4.3 4.2 4.1
6.8 7.0 6.8 6.7 6.8 6.4 6.1 5.9 5.7 5.6 5.4 5.3 5.2 5.2 5.0 4.8 4.9 5.0 4.9 5.0 5.0 5.0 5.0 5.0 4.9 4.8 4.8 4.8 4.8 4.8 4.8 4.8 4.8 4.7 4.8 4.8 4.7 4.6 4.5 4.6 4.6 4.4 4.3
6.7 6.8 6.8 6.4 6.6 6.2 6.0 6.1 5.8 5.6 5.5 5.0 4.9 4.8 4.8 4.6 4.7 4.8 4.7 4.8 4.8 4.8 5.0 5.1 4.9 4.7 4.7 4.8 4.9 4.8 4.7 4.8 4.8 4.8 4.8 4.8 4.8 4.7 4.6 4.6 4.6 4.5 4.5
6.7 6.8 6.2 6.1 6.3 6.3 6.3 6.0 6.0 5.8 5.5 5.2 4.7 4.6 4.5 4.6 4.5 4.5 4.5 4.5 4.6 4.5 4.6 4.8 4.8 4.8 4.6 4.7 4.9 4.9 4.9 4.9 4.8 4.8 4.7 4.6 4.4 4.1 4.1 4.3 4.5 4.5 4.8
6.8 6.6 6.5 6.5 6.4 6.4 6.2 6.3 6.0 5.9 5.6 5.3 4.6 4.5 4.3 4.3 4.4 4.6 4.8 4.7 4.6 4.4 4.6 4.8 4.6 4.5 4.7 4.9 5.0 5.1 4.9 4.9 4.9 4.9 4.9 4.7 4.3 4.1 4.2 4.4 4.7 5.0 5.5
7.0 6.9 6.8 6.8 6.6 6.5 6.3 6.2 6.1 6.0 5.6 5.4 4.6 4.4 4.6 4.6 4.5 4.7 4.8 5.0 5.0 4.5 4.5 4.4 4.2 4.0 4.4 4.5 4.7 4.8 4.9 5.0 5.0 5.1 4.8 4.8 4.5 4.2 4.7 5.0 5.3 5.6 5.6
6.9 6.9 6.8 6.5 6.2 6.2 6.2 6.3 5.9 6.0 5.7 5.6 5.2 4.9 4.5 4.7 4.7 4.6 4.6 4.6 4.9 4.9 4.9 4.7 3.9 4.3 4.3 4.4 4.7 4.8 4.8 5.0 5.1 5.2 5.2 5.1 5.5 5.3 5.3 5.5 5.5 5.5 5.6
7.2 6.7 6.9 6.7 6.2 6.0 6.1 6.2 6.1 6.1 5.6 5.4 5.0 5.1 4.9 4.9 4.8 4.7 4.6 4.5 4.6 4.5 4.6 4.6 4.2 4.6 4.4 4.6 4.8 4.8 5.0 5.0 5.2 5.2 5.2 5.2 5.3 5.7 5.6 5.6 5.7 5.7 5.6
6.9 6.8 6.7 6.4 6.3 6.2 5.8 5.9 6.0 6.0 5.6 5.3 5.1 5.0 4.8 4.8 4.8 4.7 4.8 4.7 4.7 4.7 4.8 4.8 4.8 4.5 4.5 5.0 5.1 5.2 5.2 5.1 5.1 5.0 5.2 5.5 5.7 5.7 5.9 6.0 5.7 5.7 5.8
6.7 6.5 6.3 6.2 6.2 6.1 6.0 6.1 6.1 5.9 5.3 5.1 5.1 5.1 5.1 4.9 4.7 5.0 5.0 4.9 5.0 5.1 5.3 5.6 5.3 5.3 5.5 5.6 5.4 5.3 5.2 5.1 4.9 5.1 5.3 5.6 5.8 5.9 5.7 5.7 5.7 5.9 6.1
6.2 6.0 6.0 6.0 6.1 6.1 6.1 6.0 6.0 5.7 5.6 5.4 5.2 5.2 4.8 5.0 5.0 5.1 5.2 5.4 5.5 5.5 5.3 5.2 5.3 5.4 5.5 5.5 5.5 5.5 5.3 5.1 5.3 5.6 5.6 5.6 6.0 5.8 5.9 5.6 5.7 5.7 5.9
5.8 5.8 5.8 6.0 6.1 6.1 6.0 5.9 5.7 5.6 5.6 5.4 5.3 5.2 5.2 5.2 5.5 5.7 5.6 5.6 5.6 5.4 5.2 5.2 5.2 5.1 5.0 4.9 4.8 5.0 5.2 5.4 5.4 5.5 5.5 5.5 5.4 5.6 6.3 6.4 6.0 6.1 5.9
6.0 6.0 6.0 6.0 5.8 5.7 5.8 5.8 5.6 5.6 5.7 5.6 5.7 5.7 5.7 5.8 5.9 5.7 5.7 5.6 5.4 5.2 5.1 5.1 5.1 5.0 4.9 5.0 5.0 4.8 5.1 5.3 5.3 5.4 5.7 5.8 6.1 6.1 6.1 6.3 6.4 6.3 6.5
6.1 6.0 5.8 5.9 5.9 6.0 6.1 6.2 5.8 5.6 5.7 5.5 5.6 5.6 5.8 5.7 5.7 5.7 5.7 5.5 5.3 5.2 5.4 5.5 5.2 5.0 5.1 5.1 5.0 5.0 4.8 5.1 5.5 5.7 5.9 5.9 6.1 6.1 6.3 6.1 6.0 6.3 6.4
6.1 6.2 6.1 5.9 5.7 5.7 5.8 5.6 5.5 5.4 5.3 5.2 5.1 5.3 5.5 5.3 5.3 5.2 5.5 5.6 5.5 5.3 5.3 5.0 4.9 5.0 5.1 5.0 5.0 5.0 5.0 5.0 5.1 5.3 5.6 5.7 6.1 6.5 6.3 6.3 6.5 6.6 6.4
5.9 5.7 5.6 5.7 5.8 5.6 5.4 5.0 4.8 5.1 5.4 5.5 5.2 5.2 5.3 5.3 5.4 5.5 5.9 5.8 5.8 5.5 5.3 5.0 4.7 4.5 4.7 5.0 5.0 4.9 4.9 5.0 5.2 5.6 5.7 5.8 6.1 6.3 6.3 6.3 6.3 6.4 6.2
6.0 5.8 5.6 5.5 5.1 5.0 4.7 4.7 4.4 4.3 4.2 4.4 4.6 5.1 5.3 5.0 5.0 5.1 5.1 5.6 5.5 5.2 5.2 5.0 4.9 4.9 4.8 4.5 4.5 4.7 4.9 5.1 5.3 5.6 5.7 5.6 5.6 5.7 5.6 5.7 5.8 5.9 5.9
5.6 5.6 4.8 4.8 5.1 4.8 4.5 4.5 4.6 4.7 4.8 4.4 4.4 4.5 5.0 5.5 5.2 5.2 5.2 5.1 5.0 4.9 4.9 5.0 5.0 5.0 4.8 4.7 4.8 5.0 5.0 5.0 5.3 5.4 5.5 5.5 5.5 5.4 5.4 5.5 5.5 5.6 5.6
5.7 5.1 5.1 5.1 4.9 4.8 4.9 4.9 5.1 5.4 5.2 5.3 5.1 4.8 5.1 5.2 5.4 4.7 4.8 5.1 5.2 4.9 4.5 5.0 5.0 5.3 5.7 5.4 5.4 5.2 5.8 5.8 5.4 5.4 5.6 5.7 5.5 5.4 5.4 5.5 5.6 5.7 5.8
5.4 5.5 5.3 5.1 5.2 5.2 5.1 5.5 5.3 5.1 5.2 5.6 5.5 5.1 5.1 5.2 5.3 5.3 5.1 5.1 4.9 5.3 5.4 5.5 5.6 5.3 5.1 5.4 5.3 5.3 5.3 5.6 5.9 5.9 5.6 5.7 6.2 6.3 6.1 5.9 6.0 5.9 5.9
5.8 5.6 5.4 5.4 5.2 5.3 5.2 5.0 5.3 5.3 5.1 5.2 5.2 5.1 5.9 5.7 5.6 5.6 5.5 5.5 5.4 5.4 5.6 5.8 5.9 6.1 6.0 6.0 5.9 5.7 5.5 5.9 6.0 6.3 6.3 6.1 5.9 5.9 6.4 6.4 6.3 6.3 6.3
Wind_Speed
8 6 7 6 5 6 8 6 4 3 6 6 6 7 9 10 9 10 11 11 11 11 11 9 9 5 4 3 1 2 2 2 3 2 2 3 4 6 9 14 16 15 17
7 7 8 7 6 7 7 6 5 5 6 6 6 8 8 10 10 11 11 11 11 11 10 10 9 6 7 6 5 6 5 4 3 6 3 3 5 5 7 7 9 15 17
8 7 7 7 6 6 7 7 5 6 6 6 6 7 7 7 8 8 10 10 10 10 9 9 8 8 8 6 7 6 5 4 4 4 3 3 2 3 5 5 5 10 13
7 7 8 7 7 7 6 7 5 7 5 6 7 6 7 7 7 8 8 7 8 8 8 8 7 7 6 6 5 5 4 5 5 6 4 3 2 3 3 3 4 4 5
7 10 7 7 7 7 7 7 5 6 6 7 7 7 6 7 5 5 5 6 7 7 6 8 7 12 15 12 4 5 5 4 4 4 3 2 2 2 2 2 3 3 4
8 10 10 8 9 8 7 7 5 6 7 7 7 6 7 6 11 10 5 5 6 6 6 5 6 10 11 15 16 18 8 5 5 4 2 3 3 3 3 3 4 3 2
7 12 12 10 11 10 9 8 5 4 6 7 6 6 7 6 12 12 10 8 7 7 7 6 7 7 8 7 12 14 14 15 10 5 5 3 2 2 4 3 2 2 3
5 8 9 8 9 8 7 9 6 4 6 6 6 6 6 6 12 13 11 8 7 7 7 7 7 6 6 6 7 8 7 7 6 5 6 4 4 4 3 2 3 4 3
7 7 6 6 8 8 8 8 8 5 5 5 5 6 7 6 10 9 5 6 6 7 6 7 6 6 8 3 6 7 6 4 9 10 9 9 16 18 6 5 3 3 2
7 8 6 6 6 9 8 8 7 5 6 7 8 7 7 6 11 10 5 4 6 4 5 6 11 7 10 9 5 6 4 1 0 1 2 3 6 13 14 6 2 4 3
8 8 7 7 6 8 7 5 5 7 7 8 9 7 7 7 7 12 10 5 6 4 4 3 4 7 8 10 9 5 2 3 5 3 3 2 4 4 6 9 8 4 4
8 7 7 8 6 5 7 6 6 8 7 7 7 5 4 4 8 9 11 10 10 7 4 3 3 6 7 7 6 6 8 6 3 3 3 3 2 2 2 4 6 8 7
9 8 8 9 8 7 7 7 6 6 5 4 4 4 3 2 3 7 8 9 8 5 4 5 4 3 3 5 4 5 6 5 5 4 2 1 1 1 1 1 2 4 5
8 8 7 8 7 7 6 6 5 5 4 4 4 3 2 1 3 2 3 4 6 5 4 2 3 3 5 5 3 4 3 3 2 2 2 1 1 1 2 1 1 1 1
7 7 7 6 7 7 7 5 4 3 2 3 3 2 2 2 1 3 4 3 2 0 1 2 2 2 3 3 2 2 3 5 5 3 3 3 3 2 3 3 2 1 2
7 6 5 5 5 5 6 6 12 8 10 9 8 3 2 5 4 4 6 6 4 6 3 1 3 3 3 2 1 1 3 3 2 3 3 2 2 2 1 3 2 1 1
6 6 4 5 4 5 5 5 5 5 7 6 7 7 5 6 5 5 6 7 4 5 1 2 2 3 3 3 4 2 1 1 1 2 2 2 2 2 3 3 2 2 3
6 8 6 5 5 5 5 5 5 5 4 2 2 4 4 5 3 2 4 4 3 2 2 3 3 4 3 3 4 3 2 3 3 2 3 3 3 1 2 3 1 1 1
6 5 4 5 5 6 5 6 5 5 5 4 2 2 3 2 1 3 4 1 2 3 4 4 5 4 3 4 4 3 3 2 2 2 2 2 3 2 2 3 3 4 2
4 10 6 5 4 5 6 7 8 5 5 5 4 4 3 3 2 2 4 3 4 5 4 2 2 2 3 4 4 4 3 2 3 3 4 3 3 3 3 3 3 1 2
4 3 3 1 3 5 5 5 5 5 6 7 6 6 11 5 5 5 5 5 5 5 3 4 4 3 2 2 2 3 3 3 3 3 4 5 4 3 4 4 4 4 3
4 4 3 4 5 5 3 1 3 4 4 7 5 5 14 6 5 5 6 6 6 6 5 4 3 4 3 3 4 4 5 4 4 4 4 5 5 4 3 3 4 4 4
4 3 4 4 5 5 4 3 3 4 3 4 5 5 5 5 5 5 5 4 3 4 7 8 4 3 4 7 8 8 5 5 6 7 4 4 3 3 2 2 3 4 4
5 6 6 5 4 4 3 0 2 2 2 3 5 5 5 5 5 6 6 4 1 4 9 3 8 11 11 9 13 11 11 14 15 14 11 5 5 4 2 2 3 5 5
5 6 5 5 4 3 3 2 2 1 1 3 5 5 2 3 5 4 7 5 4 7 13 17 16 16 19 17 17 17 19 19 22 19 15 10 7 7 5 4 4 4 5
5 5 5 4 4 3 3 3 2 2 2 5 6 8 10 9 9 10 9 9 9 12 16 15 19 22 21 20 18 20 28 26 20 21 15 12 5 5 4 6 8 5 6
Wind_Direction
140 157 139 125 115 102 106 111 81 49 44 41 36 37 44 43 37 46 45 36 51 55 49 50 32 19 50 54 70 84 82 115 130 102 103 100 66 73 64 64 60 57 55
144 144 123 117 111 102 106 99 82 75 49 59 40 48 53 57 51 49 50 43 43 43 35 40 39 34 46 41 68 73 79 63 121 121 108 94 80 72 77 69 62 67 65
136 127 127 123 109 107 105 100 80 76 58 65 55 56 43 54 60 57 61 59 57 57 45 44 35 43 45 32 36 48 50 45 48 102 106 102 121 128 87 73 67 69 69
146 137 138 132 127 111 101 91 87 82 64 67 61 72 59 45 55 69 70 59 58 56 54 50 35 32 46 57 60 62 72 75 76 87 79 83 90 134 102 105 81 58 72
159 133 131 136 115 113 101 84 73 85 72 69 67 58 60 53 42 45 93 94 79 64 51 60 56 67 58 49 47 39 66 75 78 85 84 85 76 97 99 107 91 90 62
153 144 144 138 130 123 108 105 86 81 91 79 68 68 58 47 17 31 66 71 91 102 95 75 65 58 57 47 43 49 62 97 90 94 106 101 109 126 138 141 145 177 125
149 143 151 150 143 139 135 118 109 114 101 93 83 74 61 27 22 28 43 63 56 52 69 79 68 46 47 54 42 42 39 45 62 97 91 68 84 122 144 170 196 104 121
138 148 153 154 144 137 130 131 128 124 107 111 107 98 78 27 19 25 84 84 69 53 52 69 71 45 28 85 75 61 46 43 44 68 87 79 72 65 104 119 130 117 98
98 65 89 168 143 142 131 128 129 134 124 120 121 102 89 36 16 22 72 96 87 73 61 49 52 39 9 109 97 89 63 42 62 83 97 100 80 66 107 115 134 140 157
47 42 12 17 126 140 153 142 141 144 119 112 94 73 75 55 11 11 90 115 107 92 68 60 41 32 21 48 136 129 109 303 280 2 356 7 44 65 67 74 187 171 137
63 52 30 25 49 132 118 120 125 113 108 99 89 69 57 31 19 26 42 96 146 117 91 59 35 21 34 51 65 72 88 328 355 9 347 90 52 43 51 44 50 100 102
77 62 52 44 42 50 102 97 102 119 114 105 93 72 56 27 29 28 50 60 90 116 117 110 84 37 17 71 65 28 356 347 345 1 106 112 101 39 47 60 68 74 79
77 67 59 58 53 48 66 80 88 91 102 99 97 95 69 6 55 54 46 61 67 91 105 120 107 36 344 355 24 9 28 36 63 74 92 110 178 162 137 29 20 69 82
82 73 67 68 64 53 58 56 74 78 87 96 102 106 126 69 43 357 82 78 63 80 85 48 326 305 299 293 15 23 46 50 84 78 27 311 357 58 101 172 189 254 58
99 90 84 81 82 78 62 52 78 52 87 124 115 131 128 95 75 20 64 46 8 290 155 23 343 339 316 319 296 151 77 53 48 22 38 30 26 52 356 346 33 112 174
115 115 119 113 106 107 102 83 50 65 64 64 65 96 70 78 88 50 42 28 15 33 51 323 291 259 222 172 217 29 52 52 47 59 26 33 36 36 5 331 346 18 348
123 138 137 137 142 140 124 118 111 37 61 79 84 80 107 136 87 52 25 359 346 15 274 304 309 106 81 68 82 91 86 289 125 32 60 4 351 348 346 325 310 26 18
161 169 167 159 159 147 148 141 143 145 142 135 16 136 124 130 112 59 10 4 355 14 236 270 241 131 129 113 115 115 98 51 25 7 3 346 337 321 359 325 335 177 270
166 183 200 178 176 173 152 150 169 165 154 150 145 263 213 190 237 299 343 190 261 285 284 252 218 157 163 145 151 147 142 155 203 217 253 273 302 278 317 327 313 266 252
185 167 145 138 154 130 144 153 168 165 155 169 184 199 184 162 191 230 233 246 248 250 265 104 180 156 152 159 171 169 169 213 259 263 261 253 256 254 256 279 298 275 250
125 139 129 45 171 142 131 154 183 173 179 187 202 189 184 177 206 216 218 222 241 254 217 117 125 123 167 214 171 193 203 226 245 244 245 260 254 238 240 239 245 266 269
166 195 184 161 97 96 120 148 235 185 184 174 177 188 188 202 225 231 217 225 233 230 200 160 152 141 153 175 204 203 206 220 243 261 262 262 242 246 240 238 255 257 263
199 189 141 110 119 120 71 54 46 36 26 137 161 166 176 211 237 252 268 256 225 188 187 176 167 184 218 256 259 204 200 222 228 239 242 226 195 223 243 262 274 276 268
101 86 93 108 100 94 122 117 34 7 2 32 163 153 188 225 247 241 232 247 59 47 40 33 53 29 23 8 1 345 314 260 238 241 232 213 209 221 230 271 281 279 270
89 90 85 81 73 65 39 356 145 207 100 150 157 181 227 26 15 19 47 51 49 50 53 57 37 35 36 31 27 358 355 12 348 311 260 213 212 217 222 228 251 267 264
73 73 63 48 19 50 4 358 315 338 105 45 47 70 78 68 56 49 42 53 65 67 74 69 55 47 43 35 20 13 22 11 353 325 327 313 273 222 234 245 254 255 260